SpaceMobile-003

operational
NORAD ID: 61045 Int'l Des: 2024-163 Owner: ASTS Country: US Constellation: bluewalker
LEOCIRCULAR

About SpaceMobile-003

Description loading...

Live Position

Loading 3D Globe...

Upcoming Passes

Altitude History

Altitude vs Time

uPlot chart will show altitude changes over time

Two-Line Element Set

1 61045U 24163A 26061.36952653 .00005840 00000-0 27228-3 0 9997
2 61045 52.9682 80.7653 0006991 165.1711 194.9489 15.21260428 81516
Epoch: Mar 2, 2026 • Age: 24 hours

Current Status

Altitude 521.9 km
Velocity 7.60 km/s
Sub-Earth Point -52.26°S, 162.96°W
Launch Date Sep 12, 2024
Age 1.4 years
Type other

Technical Details

Classification Payload
Mass 1500.00 kg
Dry Mass 1500.00 kg
Total Mass 1500.00 kg
Length 1.00 m
Diameter 1.00 m
Span 9.00 m
Shape Box + plate
Manufacturer ASTS
Bus Type BW3
Phase Status In Orbit
Owner/State ASTS/US

Large Constellations

Loading constellations...